User: anonymous   Login
Location: Oshawa
(43.9000°N, 78.8670°W)
Time: 12:11:24
(UTC-04:00)
Language:

Hubble Space Telescope - Orbit

View from above orbital plane
View from above orbital plane
View from above satellite
View from above satellite

Ground track
Ground track

The orbit data is extracted from the following two-line orbital elements,

1 20580U 90037B   16237.19569093  .00000621  00000-0  27632-4 0  9998
2 20580  28.4694 169.5763 0002713 215.4968 284.8906 15.08461493245396
Epoch (UTC): 24 August 2016 04:41:47
Eccentricity: 0.0002713
inclination: 28.4694°
perigee height: 539 km
apogee height: 543 km
right ascension of ascending node: 169.5763°
argument of perigee: 215.4968°
revolutions per day: 15.08461493
mean anomaly at epoch: 284.8906°
orbit number at epoch: 24539

The dashed part of the orbit path shows where the satellite is in the earth's shadow,  

DLR